Content
SEND FEEDBACK

Daily
Averages
Monthly
Summary
United States of America

SILVERMINE, CONNECTICUT


Home > North America > United States > Connecticut
Elevation: 120 feet     Latitude: 41 08N     Longitude: 073 27W

WEATHER
 
SELECT A DAY
Number of Records: 175,492;   Date Range: 1/1/95 - 8/12/14
 
SHARE

PRINT THIS DATA

[ ← Previous Day ]
WEATHER ALMANAC - JANUARY 23, 2013
[ Next Day → ]
[ °C ]   °F
Weather ElementAverageHighLow
Temperature13 °F19 °F (1:56 pm)9 °F (4:56 am)
Dewpoint-5.5 °F-0.9 °F (11:56 pm)-8 °F (4:56 pm)
Humidity44.5 %64 % (11:56 pm)33 % (1:56 pm)
Barometer30.19 in30.24 in (8:56 am)30.15 in (1:56 pm)
Wind Speed11.3 mph18.4 mph (4:56 pm)
Wind Gust25.3 mph (9:56 am)
Weather ElementAverage
Visibility10 mi
Wind DirectionW (272.2 °)

Weather ElementTotal
Precipitation---
Heating Degree Days51 (Base 65)
Averaged from 23 records on January 23, 2013
WEATHER CONDITIONS BREAKOUT
WIND DIRECTION BREAKOUT
WEATHER BY HOUR - JANUARY 23, 2013
[ °C ]   °F
Local TimeTemperatureDewpointHumidityBarometerVisibilityWind DirectionWind SpeedGust SpeedPrecipitationEventsConditions
1:56 AM10.9 °F-7.1 °F44 %30.19 in10.0 miWest (280°)13.8 mph23.0 mphClear
2:56 AM10.0 °F-7.1 °F46 %30.20 in10.0 miWest (270°)11.5 mphClear
3:56 AM10.0 °F-6.0 °F48 %30.19 in10.0 miWest (280°)12.7 mphClear
4:56 AM9.0 °F-6.0 °F51 %30.20 in10.0 miWest (280°)9.2 mphClear
5:56 AM9.0 °F-6.0 °F51 %30.21 in10.0 miWest (280°)9.2 mphClear
6:56 AM9.0 °F-6.0 °F51 %30.22 in10.0 miWest (280°)10.4 mphClear
7:56 AM9.0 °F-5.1 °F53 %30.22 in10.0 miWNW (290°)8.1 mphClear
8:56 AM10.9 °F-4.0 °F51 %30.24 in10.0 miWest (280°)11.5 mph19.6 mphClear
9:56 AM12.2 °F-5.8 °F45 %30.20 in10.0 miWNW (290°)17.3 mph25.3 mphScattered Clouds
10:56 AM16.0 °F-5.1 °F39 %30.23 in10.0 miNW (310°)17.3 mph21.9 mphScattered Clouds
11:56 AM16.0 °F-7.1 °F36 %30.20 in10.0 miWNW (290°)15.0 mph24.2 mphScattered Clouds
12:56 PM16.0 °F-7.1 °F36 %30.17 in10.0 miWest (270°)17.3 mph23.0 mphMostly Cloudy
1:56 PM19.0 °F-6.0 °F33 %30.15 in10.0 miNNW (330°)17.3 mph25.3 mphMostly Cloudy
2:56 PM17.1 °F-6.0 °F36 %30.16 in10.0 miWNW (300°)15.0 mphMostly Cloudy
3:56 PM17.1 °F-7.1 °F34 %30.17 in10.0 miWNW (290°)15.0 mphScattered Clouds
4:56 PM16.0 °F-8.0 °F34 %30.17 in10.0 miWNW (300°)18.4 mph21.9 mphScattered Clouds
5:56 PM15.1 °F-5.1 °F41 %30.19 in10.0 miWest (280°)9.2 mphPartly Cloudy
6:56 PM15.1 °F-4.0 °F43 %30.20 in10.0 miWNW (290°)6.9 mphClear
7:56 PM14.0 °F-5.1 °F43 %30.20 in10.0 miWest (270°)8.1 mphClear
8:56 PM14.0 °F-5.1 °F43 %30.19 in10.0 miWest (280°)9.2 mphClear
9:56 PM12.0 °F-4.0 °F49 %30.19 in10.0 miWest (260°)4.6 mphClear
10:56 PM12.0 °F-2.0 °F53 %30.19 in10.0 miWest (260°)3.5 mphClear
11:56 PM9.0 °F-0.9 °F64 %30.19 in10.0 miCalmClear
Hourly data recorded from KHPN, located miles away from Silvermine, Connecticut







STORIES FROM OUR PARTNERS